Temp
75 74 74 70 69 68 67 66 64 71 72 73 73 72 72 73 73 73 72 71 70 70 70 70 70 70 69 69 69 70 74 71
73 73 73 71 70 67 66 66 64 62 71 71 71 71 72 72 71 71 71 70 70 69 69 69 69 69 69 69 69 71 73 71
71 71 72 71 67 68 66 67 62 66 70 70 69 73 71 71 71 70 69 68 68 69 68 67 68 68 69 68 68 72 74 70
69 69 70 67 66 66 64 64 64 67 70 70 71 70 70 72 69 68 68 68 68 67 67 67 69 66 66 67 67 75 71 68
69 68 69 67 65 65 64 65 65 65 67 68 66 66 69 68 67 66 66 67 67 66 66 68 68 67 67 67 69 74 71 68
68 68 67 67 67 66 64 63 65 63 64 65 66 64 65 67 67 67 67 68 66 65 66 67 67 69 69 70 71 73 69 67
66 66 66 67 66 66 64 64 64 63 63 64 64 64 64 66 68 68 69 69 67 66 67 70 68 69 70 70 71 72 69 67
64 64 66 66 66 65 65 64 63 62 62 64 64 63 63 66 67 68 69 70 70 69 70 68 68 68 68 70 71 73 70 67
63 61 63 64 65 65 64 64 63 62 62 63 64 63 66 68 68 69 70 71 71 70 70 68 67 70 68 68 69 70 71 68
63 64 62 63 63 63 63 64 63 62 62 62 64 65 69 68 69 70 72 73 72 69 67 66 66 66 65 65 66 68 69 70
63 62 61 61 61 62 62 62 61 61 61 61 63 65 69 66 64 64 70 69 68 69 66 66 64 65 66 64 65 65 66 71
64 63 62 61 61 60 61 60 60 61 61 63 64 68 68 66 68 67 67 68 67 66 66 66 65 64 73 68 64 64 64 63
64 62 61 60 59 58 58 58 59 60 61 65 66 67 67 67 66 66 67 66 66 66 66 65 64 65 62 61 61 63 62 63
64 63 62 61 60 61 60 59 59 60 61 66 66 66 67 68 66 66 66 65 66 65 66 63 64 64 60 59 54 57 61 63
62 63 62 62 62 61 60 60 59 58 58 62 67 67 69 68 66 65 65 65 64 64 65 64 61 61 63 60 54 52 58 60
62 62 62 63 63 61 59 58 57 61 60 62 66 67 67 69 68 66 64 64 65 65 67 64 63 60 61 65 61 60 56 53
62 62 62 63 63 63 61 60 61 62 61 60 63 65 66 67 67 65 65 66 66 65 64 64 63 60 61 59 59 59 60 55
63 61 62 63 63 63 62 61 60 61 60 60 61 64 64 64 67 66 66 65 65 64 64 63 64 62 61 61 60 58 57 56
66 61 61 62 61 62 62 62 62 61 61 61 61 62 64 62 63 64 66 66 65 65 63 62 63 62 62 61 61 60 61 61
66 64 62 61 62 62 62 63 63 62 62 63 62 63 65 66 64 64 65 67 67 65 63 63 63 62 62 63 61 61 62 62
MSLP
1007.55 1008.01 1008.35 1008.88 1009.15 1009.68 1010.78 1009.77 1012.44 1011.73 1011.70 1012.37 1013.02 1013.94 1014.52 1015.26 1015.94 1016.48 1016.91 1017.55 1018.03 1018.35 1018.42 1018.86 1019.36 1019.40 1019.84 1020.17 1020.07 1020.44 1020.94 1022.06
1007.98 1008.12 1008.34 1008.84 1009.21 1009.96 1010.88 1011.62 1013.28 1012.47 1011.57 1012.56 1013.06 1013.98 1014.85 1015.40 1016.21 1016.95 1017.45 1018.01 1018.32 1018.71 1019.04 1019.33 1019.47 1019.93 1020.17 1020.04 1020.28 1020.64 1021.37 1022.23
1008.31 1008.32 1008.37 1008.69 1009.48 1009.97 1010.77 1011.43 1012.16 1009.80 1011.91 1012.55 1013.42 1014.17 1015.18 1015.82 1016.42 1017.35 1017.79 1018.37 1018.58 1019.29 1019.44 1019.50 1020.00 1020.25 1020.23 1020.32 1020.54 1020.74 1021.60 1022.58
1008.46 1008.63 1008.86 1009.03 1009.61 1010.33 1011.31 1011.82 1011.74 1010.32 1012.23 1012.58 1013.77 1014.57 1015.39 1015.62 1016.61 1017.70 1018.43 1018.74 1019.40 1019.68 1019.91 1019.98 1020.29 1020.48 1020.66 1020.72 1020.67 1021.03 1021.91 1022.94
1008.34 1008.82 1009.15 1009.51 1009.92 1010.18 1010.52 1011.51 1012.33 1011.41 1012.79 1013.22 1014.07 1014.90 1015.53 1016.29 1017.18 1018.06 1018.80 1019.21 1019.72 1020.10 1020.17 1020.16 1020.35 1020.68 1020.82 1020.86 1020.64 1021.14 1022.15 1023.26
1008.43 1008.83 1009.27 1009.80 1010.09 1010.53 1011.04 1011.57 1011.75 1013.16 1013.64 1013.94 1014.51 1015.43 1015.99 1016.41 1017.37 1017.83 1018.73 1019.22 1019.81 1020.01 1019.96 1020.02 1020.49 1020.50 1020.85 1020.65 1020.44 1021.35 1022.33 1023.43
1008.45 1008.90 1009.28 1009.88 1010.40 1010.79 1011.54 1011.65 1011.94 1012.69 1013.55 1014.48 1014.84 1015.52 1016.16 1016.34 1017.01 1017.76 1018.50 1018.81 1019.39 1019.79 1019.66 1019.79 1020.30 1020.51 1020.78 1020.67 1020.68 1021.45 1022.27 1023.36
1008.69 1008.91 1009.14 1009.85 1010.49 1010.87 1011.65 1012.04 1012.48 1012.12 1013.73 1014.54 1015.19 1015.79 1016.31 1016.67 1017.00 1017.63 1018.09 1018.55 1018.91 1019.18 1019.08 1019.46 1020.10 1020.37 1020.76 1020.71 1020.77 1021.45 1022.07 1023.18
1008.73 1009.10 1009.42 1009.75 1010.46 1011.10 1011.61 1011.96 1012.44 1013.02 1013.74 1014.04 1015.23 1015.86 1016.27 1016.13 1016.80 1017.33 1017.51 1017.98 1018.34 1018.65 1018.80 1019.37 1019.86 1020.32 1020.94 1020.90 1020.90 1021.23 1021.87 1022.87
1008.84 1009.06 1009.50 1010.02 1010.74 1011.22 1011.61 1011.87 1012.46 1013.06 1013.78 1014.53 1015.03 1015.55 1015.62 1015.85 1016.51 1016.83 1016.75 1017.30 1017.70 1018.38 1018.72 1019.36 1019.85 1020.45 1021.03 1021.20 1021.27 1021.28 1021.90 1022.44
1008.66 1009.18 1009.59 1010.08 1010.58 1011.05 1011.44 1011.57 1011.86 1012.66 1013.58 1014.19 1014.71 1014.91 1015.15 1015.68 1016.02 1016.22 1016.29 1016.99 1017.38 1018.29 1018.63 1019.17 1019.68 1020.25 1020.88 1021.36 1021.37 1021.56 1021.84 1022.02
1008.57 1009.16 1009.64 1010.08 1010.59 1010.91 1011.27 1011.57 1011.90 1012.64 1013.27 1014.07 1014.78 1014.94 1015.06 1016.12 1015.85 1016.11 1016.29 1016.99 1017.33 1018.10 1018.60 1019.02 1019.50 1019.95 1020.44 1021.00 1021.26 1021.52 1021.86 1022.17
1008.51 1009.06 1009.67 1010.07 1010.57 1010.86 1011.11 1011.56 1011.93 1012.70 1013.59 1013.88 1014.40 1014.64 1014.99 1015.17 1015.55 1015.84 1016.24 1016.93 1017.49 1018.07 1018.60 1019.06 1019.47 1019.70 1020.30 1020.97 1021.37 1021.59 1021.89 1022.02
1008.31 1008.96 1009.52 1010.10 1010.56 1010.93 1011.28 1011.74 1012.50 1013.27 1014.02 1013.66 1014.12 1014.69 1015.14 1015.32 1015.98 1016.40 1016.86 1017.46 1017.78 1018.14 1018.49 1019.19 1019.38 1019.51 1020.18 1020.88 1021.62 1021.95 1021.76 1021.63
1008.22 1008.78 1009.36 1009.93 1010.59 1011.14 1011.81 1012.25 1012.97 1013.63 1014.05 1014.07 1014.24 1014.78 1015.21 1015.82 1016.22 1016.55 1017.04 1017.48 1017.62 1018.07 1018.55 1019.07 1019.38 1019.53 1019.71 1020.18 1021.15 1021.32 1021.23 1021.24
1007.97 1008.69 1009.18 1009.75 1010.36 1010.96 1011.59 1012.14 1012.65 1013.18 1013.62 1013.80 1014.14 1014.50 1015.10 1015.56 1016.06 1016.53 1016.68 1016.96 1017.32 1018.01 1018.36 1018.78 1019.04 1019.46 1019.77 1019.75 1020.01 1020.39 1020.59 1021.13
1007.38 1008.37 1009.00 1009.36 1009.94 1010.58 1011.28 1011.94 1012.50 1013.05 1013.71 1014.07 1014.09 1014.42 1014.75 1015.22 1015.66 1015.93 1016.11 1016.49 1016.97 1017.33 1017.87 1018.28 1018.54 1019.10 1019.43 1019.63 1019.73 1019.89 1020.21 1020.74
1006.67 1007.77 1008.42 1008.94 1009.54 1010.19 1010.83 1011.36 1011.96 1012.68 1013.38 1013.86 1014.04 1014.18 1014.49 1014.66 1014.94 1015.29 1015.71 1015.97 1016.41 1016.96 1017.23 1017.62 1018.12 1018.39 1018.82 1019.00 1019.13 1019.43 1019.66 1020.02
1005.65 1007.12 1007.87 1008.46 1009.10 1009.66 1010.36 1010.90 1011.49 1011.94 1012.58 1013.09 1013.60 1013.81 1013.82 1014.28 1014.88 1015.21 1015.17 1015.27 1015.86 1016.18 1016.56 1017.04 1017.50 1017.99 1018.15 1018.55 1018.51 1018.71 1018.86 1019.37
1004.85 1006.10 1007.27 1007.92 1008.49 1009.11 1009.78 1010.31 1010.89 1011.45 1012.03 1012.52 1013.09 1013.30 1013.32 1013.78 1014.40 1014.65 1014.56 1014.95 1015.41 1015.74 1016.10 1016.40 1016.84 1017.21 1017.49 1017.92 1018.20 1018.19 1018.28 1018.64
Wind_Speed
2 6 6 5 5 9 10 5 12 17 26 26 25 23 21 20 18 19 20 20 19 18 17 16 12 10 8 6 7 8 14 11
2 3 2 5 5 12 13 8 6 28 25 25 24 23 20 20 20 19 20 19 18 18 17 15 12 8 5 0 5 9 13 12
1 3 5 7 6 13 15 12 4 17 23 23 18 13 16 18 17 19 19 17 17 16 16 15 11 6 5 4 7 4 12 10
6 4 6 9 7 9 9 7 3 7 12 17 10 12 11 14 17 19 17 17 16 17 16 14 10 3 1 2 2 11 10 10
6 7 9 10 8 6 5 6 5 3 9 11 8 6 8 9 8 9 9 13 8 9 10 7 7 4 3 4 5 10 9 8
6 7 5 9 7 6 7 7 7 6 5 7 8 5 6 10 7 10 8 6 8 7 6 6 7 6 5 5 3 10 9 7
3 8 8 9 8 7 7 9 8 11 9 6 5 5 4 9 9 9 8 8 6 7 6 7 7 6 4 5 2 14 14 8
5 5 6 10 7 7 8 7 9 12 9 10 6 3 4 10 9 8 8 9 7 7 5 5 5 5 5 4 5 11 13 13
6 7 7 7 8 8 5 7 9 9 10 12 12 6 11 10 10 9 9 10 10 7 6 5 4 6 5 3 4 5 12 13
7 6 7 8 9 8 7 9 10 10 11 11 11 10 13 9 10 10 10 10 8 5 5 5 5 5 4 4 4 4 7 12
9 7 6 6 6 5 6 7 9 13 11 10 9 8 6 4 5 4 7 8 6 6 4 5 5 5 6 5 4 4 5 3
10 9 8 8 5 4 6 5 11 10 11 11 11 9 6 5 5 4 6 5 5 5 4 3 5 5 9 6 4 5 5 5
10 9 10 7 6 5 7 7 8 10 8 11 11 7 5 3 4 4 5 4 4 5 3 5 2 4 3 4 3 3 5 5
11 12 11 9 7 5 4 10 7 8 2 8 7 9 7 3 4 4 4 1 5 5 5 2 3 4 4 4 3 2 4 5
11 12 13 11 11 7 6 6 6 6 2 6 8 12 11 9 6 6 6 5 4 5 6 6 4 3 6 5 3 5 5 4
13 13 14 11 14 11 14 8 11 10 7 6 9 10 12 11 8 9 7 5 4 6 6 4 4 5 2 6 4 1 2 2
14 13 14 13 13 14 12 12 10 10 7 8 8 12 9 11 8 8 8 6 8 11 7 7 4 4 5 3 4 3 4 4
16 16 16 16 16 15 15 16 15 12 11 10 8 7 8 9 10 7 7 7 8 7 7 8 8 5 4 5 4 3 3 3
16 17 16 16 17 16 17 16 17 17 16 13 13 10 8 9 11 10 7 8 8 7 7 7 8 8 7 5 3 4 4 4
17 18 17 17 18 18 16 17 11 11 16 13 12 12 10 11 12 12 8 11 13 8 5 7 8 7 10 10 5 5 5 7
Wind_Direction
205 177 204 200 183 140 140 97 46 179 142 141 137 135 134 135 129 124 119 123 125 124 115 114 106 93 67 26 13 353 98 104
310 239 184 179 148 129 121 115 57 303 148 142 138 135 134 127 126 125 124 125 123 122 119 114 99 100 94 121 335 88 115 107
208 155 155 140 134 138 137 158 53 258 148 136 133 137 131 131 126 126 121 124 123 124 117 110 108 132 196 8 342 126 103 103
141 136 108 98 113 122 149 140 115 251 146 132 138 136 143 135 133 123 122 123 124 121 120 123 135 163 181 327 290 105 103 106
168 159 139 120 136 136 126 138 136 42 131 127 127 127 135 135 125 125 126 123 123 129 135 149 133 161 169 225 225 107 109 112
161 148 155 126 124 133 155 139 136 132 103 103 122 122 133 137 135 132 142 146 153 158 167 161 163 188 193 172 154 114 114 120
113 160 161 142 136 133 147 143 140 131 119 115 97 120 155 134 143 146 155 140 157 183 179 153 159 171 171 161 198 118 123 127
96 149 149 148 139 136 147 143 142 124 137 142 146 141 178 164 146 157 169 154 164 196 180 142 165 155 145 192 124 130 130 135
132 107 122 129 150 150 148 153 145 147 153 152 170 171 200 162 159 174 178 167 176 196 142 146 144 138 161 159 117 126 144 143
146 141 145 149 153 161 168 172 165 160 156 166 176 192 196 164 177 188 179 170 174 164 143 153 149 142 149 165 150 147 124 154
154 151 144 133 132 147 162 182 173 156 152 159 184 212 182 154 167 189 159 166 144 144 149 153 146 155 150 176 172 162 153 191
152 154 153 133 122 117 152 155 151 148 151 159 180 214 151 167 115 159 134 136 125 135 157 163 153 166 172 169 177 168 163 189
165 149 150 137 136 133 130 129 124 134 161 181 166 155 151 130 109 105 82 112 145 143 147 163 183 188 132 128 150 198 181 195
168 158 160 151 145 144 116 136 114 129 143 157 151 147 156 150 144 139 158 176 151 151 145 176 187 184 163 141 152 255 237 215
167 162 163 156 157 141 117 115 126 149 153 166 170 162 168 190 174 167 176 193 166 158 167 187 197 201 199 154 168 207 190 202
162 170 167 166 163 161 157 163 165 180 172 162 178 165 180 189 195 190 184 182 187 173 179 198 181 182 200 243 236 146 216 18
162 177 176 171 171 174 172 175 176 178 181 188 189 184 182 183 203 200 184 195 212 190 180 189 206 210 189 181 232 205 207 199
160 175 184 176 178 174 180 180 179 181 184 195 207 205 184 192 205 211 203 181 199 202 184 186 206 220 222 213 179 175 225 215
163 175 185 181 179 182 187 185 185 191 189 194 200 213 200 193 205 221 212 193 207 197 185 193 196 210 229 230 214 210 191 228
174 175 185 189 187 186 185 190 189 191 196 196 204 214 214 207 204 218 217 206 212 209 208 201 207 216 218 229 226 218 205 216